Location: Ettlingenweier
(48.9271°N, 8.3883°E)
Time: 21:29:43
(UTC+00:00)

Daily predictions for brighter satellites

Satellite Brightness Start Highest point End
(mag) Time Altitude Azimuth Time Altitude Azimuth Time Altitude Azimuth
Cosmos 1814 Rocket 4.4 17:03:57 10° S 17:08:55 43° ESE 17:13:51 10° NE
SAR-Lupe-4 3.8 17:06:13 10° SE 17:09:38 45° ENE 17:13:04 10° N
ATLAS 3B R/B 4.1 17:02:34 10° NW 17:10:01 50° WSW 17:17:02 10° S
NOSS 7 (A) 4.5 17:08:37 10° NW 17:11:31 84° NE 17:14:37 10° SE
Cosmos 1125 Rocket 4.2 17:08:06 10° N 17:12:43 31° NE 17:17:20 10° ESE
IRS-1C 4.2 17:08:02 10° SSE 17:13:21 87° WSW 17:18:43 10° NNW
YAOGAN 1 2.8 17:16:42 10° SE 17:20:46 46° ENE 17:24:52 10° N
Cosmos 2123 Rocket 4.0 17:15:17 10° S 17:21:34 75° E 17:27:53 10° NNE
Okean 2 Rocket 3.6 17:18:32 10° N 17:22:40 37° ENE 17:26:44 10° SE
Cosmos 1900 4.4 17:17:42 10° SW 17:22:48 88° SE 17:27:53 10° NE
NOSS 3-3 (C) 4.4 17:18:38 10° S 17:23:10 32° ESE 17:28:24 10° NE
Spot 4 Rocket 4.3 17:21:10 10° SE 17:26:02 47° ENE 17:30:56 10° N
Okean 1 Rocket 3.6 17:22:04 10° N 17:26:08 35° ENE 17:30:10 10° SE
COSMOS 2428 2.7 17:22:33 10° NNW 17:28:17 66° ENE 17:33:58 10° SE
Cosmos 1980 4.3 17:26:37 10° NNW 17:31:53 37° NE 17:37:05 10° ESE
Sich 1 Rocket 4.1 17:27:56 10° N 17:32:14 39° ENE 17:36:30 10° SE
ARIANE 5 R/B 3.2 17:27:35 10° S 17:32:38 59° WSW 17:37:40 10° NNW
Cosmos 158 Rocket 3.8 17:32:04 10° S 17:36:53 66° ESE 17:41:43 10° NNE
Cosmos 2237 Rocket 2.7 17:32:13 10° NNW 17:37:31 38° NE 17:42:46 10° ESE
Aureole 3 Rocket 3.5 17:33:41 10° N 17:37:36 31° ENE 17:40:43 10° SE
ATLAS 5 CENTAUR R/B 2.4 17:34:51 10° NW 17:39:04 57° SW 17:44:16 10° SSE
Cosmos 192 4.2 17:34:26 10° NNW 17:39:20 71° ENE 17:44:12 10° SSE
SeaSat 1 3.3 17:34:53 10° SSE 17:39:40 55° WSW 17:44:29 10° NW
Cosmos 1378 Rocket 3.4 17:35:46 10° S 17:40:06 83° E 17:44:25 10° N
USA 234 4.4 17:34:36 10° SSE 17:40:48 44° SW 17:47:02 10° WNW
Resurs 01 Rocket 2.1 17:37:06 10° SE 17:41:07 37° ENE 17:45:11 10° N
SKYMED 2 3.5 17:38:46 10° NNE 17:43:09 81° ESE 17:47:30 10° SSW
GP-B 3.3 17:39:40 10° S 17:44:01 73° W 17:48:24 10° N
Cosmos 2219 Rocket 3.9 17:42:05 10° NW 17:47:09 36° WSW 17:52:10 10° S
COSMO-SKYMED 1 2.5 17:43:24 10° NNE 17:47:27 52° E 17:51:27 10° S
Cosmos 2228 4.3 17:45:49 10° NNE 17:48:45 18° ENE 17:49:16 18° ENE
Cosmos 2292 Rocket 3.8 17:46:50 10° SSW 17:49:37 44° WNW 17:52:32 10° N
PSLV R/B 3.4 17:46:52 10° SSE 17:50:55 60° ENE 17:54:59 10° N
NOSS 3-3 (A) 3.8 17:46:45 10° SSW 17:51:46 58° ESE 17:57:35 11° NE
Cosmos 2322 3.9 17:46:47 10° NNW 17:52:31 78° WSW 17:58:13 10° SSE
USA 306 1.1 17:51:33 10° WNW 17:54:26 89° SSW 17:55:03 40° ESE
Cosmos 2016 Rocket 4.4 17:48:22 10° NNW 17:54:34 70° W 18:00:49 10° S
Resurs 1-3 3.7 17:50:21 10° S 17:54:39 77° WSW 17:58:58 10° NNW
Cosmos 1025 Rocket 2.9 17:54:08 10° S 17:58:24 72° E 18:02:44 10° NNE
SJ-7 4.0 17:55:01 10° SSE 17:58:42 84° ENE 18:02:24 10° NNW
Cosmos 2285 Rocket 4.0 17:53:04 10° NNW 17:59:28 64° ENE 18:05:49 10° SE
SL-16 R/B 3.5 17:56:22 10° N 18:00:41 22° NE 18:02:27 19° ENE
Cosmos 2227 Rocket 3.5 18:00:19 10° SE 18:03:35 19° ESE 18:03:35 19° ESE
SJ-6B 2.8 18:05:12 14° SE 18:07:54 41° ENE 18:11:10 10° N
NOSS 3-4 (A) 3.9 18:03:17 10° NW 18:09:41 55° NE 18:15:10 19° ESE
SPOT 5 3.7 18:08:21 24° E 18:09:51 29° ENE 18:14:08 10° N
NOSS 3-4 (C) 3.9 18:03:32 10° NW 18:09:58 54° NE 18:15:23 19° ESE
Cosmos 2233 Rocket 4.3 18:04:17 10° NNW 18:10:32 72° W 18:16:48 10° S
CZ-2D R/B 4.0 18:08:44 10° S 18:12:33 58° WSW 18:16:30 10° NNW
Cosmos 1674 Rocket 4.0 18:10:18 10° SSW 18:14:38 63° WNW 18:19:02 10° N
Cosmos 1315 Rocket 4.4 18:13:00 10° NNW 18:16:29 36° W 18:19:59 10° SSW
Cosmos 1513 Rocket 4.5 18:12:15 10° N 18:18:28 62° ENE 18:24:44 10° SSE
Cosmos 1867 4.3 18:17:38 10° WSW 18:22:54 51° NW 18:27:56 12° NNE
ATLAS 2AS CENTAUR R/B 4.2 18:20:05 10° WNW 18:25:53 28° NNW 18:31:15 11° NE
CZ-4 R/B 3.2 18:28:09 15° NNE 18:28:09 15° NNE 18:29:04 10° N
CZ-4B R/B 4.2 18:26:46 24° NE 18:26:46 24° NE 18:30:35 10° N
Helios 1A Rocket 4.2 18:28:45 18° SSE 18:28:45 18° SSE 18:29:48 10° S
Lacrosse 5 rocket 2.1 18:23:47 10° W 18:27:05 36° NNW 18:28:21 27° NNE
Atlas Centaur 2 4.5 18:23:27 10° SSW 18:27:21 15° S 18:30:58 10° SE
Meteor 1-31 Rocket 4.2 18:32:59 22° NNE 18:32:59 22° NNE 18:34:26 10° N
CZ-4C R/B 2.0 18:28:06 10° SW 18:32:22 68° NW 18:36:09 20° NE
IRAS Rocket 4.2 18:28:54 10° SSE 18:34:30 89° WSW 18:40:11 10° NNW
CARTOSAT-1 4.4 18:30:35 10° S 18:34:40 51° W 18:38:47 10° NNW
CRYOSAT 2 4.3 18:32:48 10° N 18:37:44 88° E 18:42:37 10° S
USA 267 3.9 18:41:48 24° NE 18:45:33 48° N 18:51:45 10° W
Cosmos 1464 Rocket 3.9 18:39:52 10° N 18:46:14 69° ENE 18:52:31 10° SSE
CSL-04 Debris 4.2 18:44:38 36° SE 18:46:37 57° ENE 18:51:56 10° N
ERS-1 Rocket 4.2 18:48:48 25° NNE 18:48:48 25° NNE 18:51:32 10° N
Cosmos 2297 Rocket 2.1 18:42:50 10° SSW 18:48:30 86° ESE 18:52:37 20° NNE
Cosmos 1570 Rocket 3.9 18:44:13 10° SSW 18:49:29 77° ESE 18:52:48 23° NNE
CSL-04 Rocket 3.5 18:47:26 36° SE 18:49:32 63° ENE 18:54:45 10° N
Cosmos 2344 3.9 18:43:42 10° S 18:50:48 36° ESE 18:51:12 36° ESE
BREEZE-M DEB (TANK) 4.3 18:46:54 10° WNW 18:50:53 66° SSW 18:56:52 26° SE
Cosmos 1455 Rocket 3.4 18:47:32 10° NNW 18:51:49 64° W 18:56:03 10° S
Cosmos 1975 Rocket 3.8 18:47:56 10° S 18:50:38 36° SSE 18:50:38 36° SSE
DNEPR-1 R/B 4.0 18:48:50 10° NW 18:53:34 60° NE 18:54:12 56° E
PAYLOAD B 4.2 19:05:27 58° ENE 19:05:30 58° ENE 19:11:01 10° N
Cosmos 2208 Rocket 3.8 19:01:27 10° SSW 19:06:40 78° ESE 19:07:29 63° NE
Terra 3.6 19:11:53 19° N 19:11:53 19° N 19:13:25 10° N
NOSS 3-3 (C) 4.3 19:08:22 10° WSW 19:13:38 56° NW 19:16:44 29° NNE
Resurs 01 Rocket 3.7 19:13:52 10° SSW 19:17:34 27° W 19:21:19 10° NW
Cosmos 2237 Rocket 3.2 19:16:17 10° NW 19:21:39 44° WSW 19:25:52 16° S
Cosmos 44 Rocket 3.9 19:17:52 10° SSW 19:21:20 47° SSW 19:21:20 47° SSW
Cosmos 773 Rocket 4.1 19:18:47 10° SSW 19:24:02 73° WNW 19:25:06 56° N
Cosmos 2228 3.9 19:21:59 10° NNW 19:25:37 47° WNW 19:25:37 47° WNW
Orbus 7S? 4.2 19:21:56 10° NW 19:28:58 63° WSW 19:28:58 63° WSW
Cosmos 2150 Rocket 4.4 19:28:28 10° NNW 19:33:32 56° WSW 19:33:58 54° SW
Cosmos 2298 Rocket 4.4 19:29:04 10° NNW 19:34:17 60° WSW 19:34:43 57° SW
SL-16 R/B 2.6 19:39:53 10° NNW 19:44:20 57° NNW 19:44:20 57° NNW
Cosmos 2227 Rocket 3.0 19:41:48 10° SSW 19:45:30 42° SW 19:45:30 42° SW
SPOT 5 3.9 19:47:22 43° WSW 19:47:35 43° W 19:52:22 10° NNW
CZ-4 R/B 4.4 20:03:09 10° NW 20:03:09 10° NW 20:03:10 10° NW
Lacrosse 5 rocket 4.4 20:01:45 10° NW 20:01:47 10° NW 20:01:47 10° NW
CZ-4B R/B 4.4 20:08:36 36° NW 20:08:36 36° NW 20:11:49 10° NNW
BREEZE-M DEB (TANK) 4.1 19:57:25 10° W 20:10:46 64° SW 20:10:46 64° SW
ATLAS 2AS CENTAUR R/B 4.2 20:13:35 10° NW 20:18:40 24° N 20:18:40 24° N
CZ-4C R/B 4.0 20:17:42 10° WNW 20:21:07 24° NNW 20:21:07 24° NNW
USA 267 4.1 20:29:08 42° NNW 20:29:08 42° NNW 20:34:05 10° WNW
Cosmos 2297 Rocket 4.2 20:28:52 10° W 20:33:17 23° NW 20:34:29 21° NNW
